Weather History for Teterboro, NJ

Change the Weather History Date:

Monday, February 18, 2013

  Actual Average Record
Temperature  
Mean Temperature 26 °F -  
Max Temperature 35 °F 40 °F 66 °F (2011)
Min Temperature 17 °F 26 °F 14 °F (1980)
Degree Days  
Heating Degree Days 39    
Moisture  
Dew Point 6 °F    
Average Humidity 43    
Maximum Humidity 54    
Minimum Humidity 31    
Precipitation  
Precipitation 0.00 in - - ()
Sea Level Pressure  
Sea Level Pressure 30.17 in    
Wind  
Wind Speed 13 mph (West)    
Max Wind Speed 22 mph    
Max Gust Speed 29 mph    
Visibility 10 miles    
Events      
Averages and records for this station are not official NWS values.
T = Trace of Precipitation, MM = Missing Value Source: NWS Daily Summary

Daily Weather History Graph

Daily Weather History Graph

Search for Another Location

Airport:

Trip Planner

Search our weather history database for the weather conditions in past years. The results will help you decide how hot, cold, wet, or windy it might be!

Date:

Astronomy

Feb. 18, 2013 Rise Set
Actual Time 6:46 AM EST 5:34 PM EST
Civil Twilight 6:18 AM EST 6:02 PM EST
Nautical Twilight 5:46 AM EST 6:34 PM EST
Astronomical Twilight 5:14 AM EST 7:06 PM EST
Moon 11:17 AM EST (2/18) 1:24 AM EST (2/18)
Length of Visible Light 11h 44m
Length of Day
10h 48m
First Quarter, 58% of the Moon is Illuminated
Feb 18
First Quarter
Feb 25
Full
Mar 4
Last Quarter
Mar 11
New
Mar 19
First Quarter

Hourly Weather History & Observations

Time (EST) Temp. Windchill Dew Point Humidity Pressure Visibility Wind Dir Wind Speed Gust Speed Precip Events Conditions
12:51 AM 18.0 °F 4.2 °F 1.0 °F 48% 30.03 in 10.0 mi WNW 13.8 mph 23.0 mph N/A   Clear
1:51 AM 18.0 °F 0.9 °F 1.0 °F 48% 30.04 in 10.0 mi WNW 21.9 mph 28.8 mph N/A   Clear
2:51 AM 18.0 °F 2.2 °F 1.9 °F 50% 30.06 in 10.0 mi NW 18.4 mph 27.6 mph N/A   Clear
3:51 AM 18.0 °F 2.6 °F 1.9 °F 50% 30.08 in 10.0 mi WNW 17.3 mph 23.0 mph N/A   Clear
4:51 AM 18.0 °F 3.6 °F 1.9 °F 50% 30.12 in 10.0 mi NW 15.0 mph 21.9 mph N/A   Clear
5:51 AM 17.1 °F 7.6 °F 3.0 °F 54% 30.17 in 10.0 mi WNW 6.9 mph - N/A   Clear
6:51 AM 17.1 °F 3.6 °F 3.0 °F 54% 30.18 in 10.0 mi NW 12.7 mph 24.2 mph N/A   Clear
7:51 AM 19.4 °F 6.0 °F 3.2 °F 49% 30.20 in 10.0 mi WNW 13.8 mph 20.7 mph N/A   Clear
8:51 AM 21.0 °F 10.6 °F 3.9 °F 48% 30.22 in 10.0 mi WNW 9.2 mph 19.6 mph N/A   Clear
9:51 AM 23.0 °F 10.6 °F 5.0 °F 46% 30.23 in 10.0 mi NW 13.8 mph - N/A   Clear
10:51 AM 26.1 °F 15.6 °F 5.0 °F 41% 30.24 in 10.0 mi WNW 11.5 mph - N/A   Clear
11:51 AM 28.9 °F 19.2 °F 6.1 °F 38% 30.23 in 10.0 mi WNW 11.5 mph 20.7 mph N/A   Clear
12:51 PM 30.9 °F 22.2 °F 8.1 °F 38% 30.21 in 10.0 mi WNW 10.4 mph - N/A   Clear
1:51 PM 33.1 °F 24.4 °F 7.0 °F 34% 30.19 in 10.0 mi WNW 11.5 mph 20.7 mph N/A   Clear
2:51 PM 34.0 °F 23.8 °F 7.0 °F 32% 30.18 in 10.0 mi NW 16.1 mph 21.9 mph N/A   Clear
3:51 PM 35.1 °F 27.4 °F 7.0 °F 31% 30.18 in 10.0 mi West 10.4 mph - N/A   Clear
4:51 PM 35.1 °F 27.9 °F 7.0 °F 31% 30.18 in 10.0 mi WNW 9.2 mph - N/A   Clear
5:51 PM 34.0 °F 26.6 °F 7.0 °F 32% 30.19 in 10.0 mi WSW 9.2 mph - N/A   Clear
6:51 PM 33.1 °F 26.1 °F 8.1 °F 35% 30.21 in 10.0 mi SW 8.1 mph - N/A   Clear
7:51 PM 32.0 °F 25.6 °F 9.0 °F 38% 30.20 in 10.0 mi SW 6.9 mph - N/A   Clear
8:51 PM 32.0 °F 26.4 °F 10.0 °F 40% 30.21 in 10.0 mi South 5.8 mph - N/A   Clear
9:51 PM 30.9 °F 25.2 °F 12.0 °F 46% 30.21 in 10.0 mi South 5.8 mph - N/A   Clear
10:51 PM 30.9 °F 27.5 °F 12.0 °F 46% 30.21 in 10.0 mi South 3.5 mph - N/A   Partly Cloudy
11:51 PM 32.0 °F 28.7 °F 12.0 °F 44% 30.20 in 10.0 mi South 3.5 mph - N/A   Overcast